Home > Weather > Gary > Past weeks

Flag for USA Past Weather in Gary, Indiana, USA — Yesterday and Last 2 Weeks

Now
67 °F

Clear.


Feels Like: 67 °F
Forecast: 60 / 68 °F
Wind: 6 mph from Northwest

Location: Lansing Municipal Airport

Current Time: Jul 1, 2016 at 3:11:27 AM

Latest Report: Jul 1, 2016 at 2:35 AM


Visibility: 10 mi

Pressure: 29.91 "Hg

Humidity: 76%

Dew Point: 60 °F

Location of GaryLocation

Past Weather in Gary — Graph

°F

Gary Temperature Yesterday

Maximum temperature yesterday: 79 °F (at 2:55 PM)
Minimum temperature yesterday: 56 °F (at 4:55 AM)
Average temperature yesterday: 69 °F

High & Low Weather Summary for the Past Weeks

 TemperatureHumidityPressure
High92 °F (Jun 27, 1:35 PM)99% (Jun 23, 4:55 AM)30.26 "Hg (Jun 23, 4:55 AM)
Low53 °F (Jun 29, 5:15 AM)27% (Jun 21, 2:35 PM)29.73 "Hg (Jun 16, 2:15 AM)
Average73 °F63%30.04 "Hg
* Reported Jun 16 1:15 AM — Jul 1 1:55 AM, Gary, Weather by CustomWeather, © 2016

Note: Actual official high and low records may vary slightly from our data, if they occured in-between our weather recording intervals... More about our weather records

Advertising

Gary Weather History for the Previous 24 Hours

Scroll right to see more
 ConditionsComfort  
Time TempWeatherWind HumidityBarometerVisibility
1:55 AM
Fri, Jul 1
67 °FPassing clouds.5 mph76%29.90 "Hg10 mi
1:35 AM67 °FPartly cloudy.5 mph73%29.91 "Hg10 mi
1:15 AM68 °FPartly cloudy.5 mph70%29.90 "Hg10 mi
12:55 AM69 °FPartly cloudy.3 mph68%29.90 "Hg10 mi
12:35 AM69 °FPassing clouds.3 mph68%29.91 "Hg10 mi
12:15 AM69 °FPassing clouds.3 mph68%29.91 "Hg10 mi
11:55 PM
Thu, Jun 30
70 °FPassing clouds.3 mph67%29.91 "Hg10 mi
11:35 PM70 °FMostly cloudy.3 mph66%29.91 "Hg10 mi
11:15 PM69 °FMostly cloudy.No wind71%29.91 "Hg10 mi
10:55 PM69 °FMostly cloudy.3 mph71%29.91 "Hg10 mi
10:35 PM70 °FOvercast.3 mph67%29.92 "Hg10 mi
10:15 PM70 °FOvercast.6 mph67%29.92 "Hg10 mi
9:55 PM71 °FOvercast.5 mph64%29.93 "Hg10 mi
9:35 PM71 °FMostly cloudy.5 mph65%29.93 "Hg10 mi
9:15 PM70 °FMostly cloudy.6 mph64%29.92 "Hg10 mi
8:55 PM70 °FOvercast.6 mph63%29.93 "Hg10 mi
8:35 PM72 °FPartly cloudy.5 mph58%29.93 "Hg10 mi
8:15 PM73 °FPartly sunny.7 mph56%29.94 "Hg10 mi
7:55 PM74 °FOvercast.10 mph53%29.94 "Hg10 mi
7:35 PM74 °FScattered clouds.10 mph53%29.94 "Hg10 mi
7:15 PM74 °FPartly sunny.10 mph50%29.93 "Hg10 mi
6:55 PM75 °FOvercast.10 mph49%29.94 "Hg10 mi
6:35 PM75 °FPartly sunny.10 mph48%29.93 "Hg10 mi
6:15 PM76 °FScattered clouds.9 mph46%29.93 "Hg10 mi
5:55 PM77 °FScattered clouds.8 mph42%29.93 "Hg10 mi
5:35 PM77 °FScattered clouds.10 mph41%29.94 "Hg10 mi
5:15 PM76 °FScattered clouds.13 mph41%29.95 "Hg10 mi
4:55 PM78 °FScattered clouds.14 mph41%29.96 "Hg10 mi
4:35 PM77 °FScattered clouds.13 mph43%29.96 "Hg10 mi
4:15 PM75 °FSunny.12 mph44%29.96 "Hg10 mi
3:55 PM76 °FSunny.13 mph45%29.96 "Hg10 mi
3:35 PM76 °FSunny.13 mph45%29.96 "Hg10 mi
3:15 PM76 °FSunny.10 mph45%29.96 "Hg10 mi
2:55 PM79 °FSunny.8 mph40%29.97 "Hg10 mi
2:35 PM75 °FSunny.10 mph43%29.98 "Hg10 mi
2:15 PM77 °FSunny.10 mph39%29.99 "Hg10 mi
1:55 PM77 °FSunny.12 mph40%29.99 "Hg10 mi
1:15 PM75 °FScattered clouds.13 mph38%30.01 "Hg10 mi
12:55 PM77 °FSunny.10 mph37%30.02 "Hg10 mi
12:35 PM76 °FSunny.13 mph37%30.02 "Hg10 mi
12:15 PM76 °FScattered clouds.9 mph37%30.03 "Hg10 mi
11:55 AM76 °FSunny.13 mph38%30.03 "Hg10 mi
11:35 AM75 °FSunny.12 mph37%30.04 "Hg10 mi
11:15 AM76 °FScattered clouds.5 mph38%30.03 "Hg10 mi
10:55 AM78 °FScattered clouds.10 mph35%30.04 "Hg10 mi
10:35 AM77 °FSunny.8 mph35%30.04 "Hg10 mi
10:15 AM76 °FSunny.8 mph36%30.05 "Hg10 mi
9:55 AM75 °FSunny.8 mph41%30.05 "Hg10 mi
9:35 AM75 °FSunny.6 mph42%30.05 "Hg10 mi
9:15 AM74 °FSunny.7 mph44%30.06 "Hg10 mi
8:55 AM73 °FSunny.7 mph47%30.07 "Hg10 mi
8:35 AM71 °FSunny.5 mph52%30.07 "Hg10 mi
8:15 AM70 °FSunny.3 mph54%30.06 "Hg10 mi
7:55 AM68 °FSunny.3 mph57%30.06 "Hg10 mi
7:35 AM66 °FSunny.No wind61%30.06 "Hg10 mi
7:15 AM64 °FSunny.3 mph64%30.05 "Hg10 mi
6:55 AM62 °FSunny.No wind68%30.05 "Hg10 mi
6:35 AM60 °FSunny.No wind71%30.05 "Hg10 mi
6:15 AM57 °FSunny.No wind67%30.05 "Hg10 mi
5:55 AM57 °FSunny.No wind64%30.05 "Hg10 mi
5:35 AM58 °FSunny.No wind62%30.05 "Hg10 mi
4:55 AM56 °FClear.No wind66%30.05 "Hg10 mi
4:35 AM58 °FClear.No wind61%30.05 "Hg10 mi
4:15 AM57 °FClear.No wind64%30.05 "Hg10 mi
3:55 AM56 °FClear.No wind67%30.05 "Hg10 mi
3:35 AM57 °FClear.3 mph66%30.04 "Hg10 mi
3:15 AM57 °FClear.3 mph68%30.05 "Hg10 mi
Weather by CustomWeather, © 2016

See weather overviewHow to use our weather pages